#timestamp,LO_Frequency,Hit,StdDev 
1559998815.5,286046998.3,N
1559998835.4,286046998.1,N
1559998855.2,286046998.3,N
1559998875.0,286046998.1,N
1559998875.9,286046998.1,N
1559998895.8,286047000.1,N
1559998915.6,286047000.4,N
1559998935.5,286047002.1,N
1559998955.3,286046999.9,N
1559998975.1,286047000.2,N
1559998995.9,286047002.2,N
1559999015.7,286047000.1,N
1559999035.6,286046999.9,N
1559999055.4,286047000.1,N
1559999075.2,286047002.8,N
1559999095.1,286047002.4,N
1559999096.0,286047002.4,N
1559999115.8,286046999.9,N
1559999135.6,286046999.9,N
1559999155.5,286046999.8,N
1559999175.3,286047000.9,N
1559999195.2,286046998.4,N
1559999215.9,286047002.4,N
1559999235.7,286047000.1,N
1559999255.6,286047000.5,N
1559999275.4,286047002.4,N
1559999295.3,286047002.1,N
1559999315.1,286047002.8,N
1559999316.0,286047002.8,N
1559999335.8,286046999.8,N
1559999355.7,286047002.2,N
1559999375.5,286047002.8,N
1559999395.3,286047000.8,N
1559999415.2,286046998.6,N
1559999435.0,286046998.4,N
1559999435.9,286046998.4,N
1559999455.8,286046998.1,N
1559999475.6,286046999.7,N
1559999495.4,286046999.7,N
1559999515.3,286047001.1,N
1559999535.1,286047001.2,N
1559999555.9,286047001.0,N
1559999575.7,286047002.3,N
1559999595.5,286046999.7,N
1559999615.4,286047000.0,N
1559999635.2,286047000.3,N
1559999655.0,286047002.4,N
1559999656.0,286047002.4,N
1559999675.8,286046999.9,N
1559999695.6,286047000.3,N
1559999715.5,286047001.1,N
1559999735.3,286046999.1,N
1559999755.1,286046999.3,N
1559999775.9,286046996.6,N
1559999795.7,286046999.4,N
1559999815.6,286046999.0,N
1559999835.4,286046998.7,N
1559999855.2,286047000.2,N
1559999875.1,286047000.7,N
1559999876.0,286047000.7,N
1559999895.8,286047000.3,N
1559999915.6,286047000.3,N
1559999935.5,286047002.8,N
1559999955.3,286047002.6,N
1559999975.2,286046999.7,N
1559999995.0,286047000.3,N
1559999995.9,286047000.3,N
1560000015.7,286046998.3,N
1560000035.6,286046998.4,N
1560000055.4,286046998.8,N
1560000075.3,286046998.9,N
1560000095.1,286047001.2,N
1560000096.0,286047001.2,N
1560000115.8,286047000.5,N
1560000135.7,286047000.5,N
1560000155.5,286047000.8,N
1560000175.3,286047001.2,N
1560000195.2,286046998.5,N
1560000215.0,286046998.6,N
1560000215.9,286046998.6,N
1560000235.8,286047002.6,N
1560000255.6,286047002.1,N
1560000275.4,286047001.6,N
1560000295.3,286047002.4,N
1560000315.1,286047000.1,N
1560000335.9,286047002.6,N
1560000355.7,286046999.9,N
1560000375.5,286047000.6,N
1560000395.4,286046998.6,N
1560000415.2,286046998.6,N
1560000435.1,286046998.4,N
1560000436.0,286046998.4,N
1560000455.8,286046998.6,N
1560000475.6,286047002.1,N
1560000495.5,286047000.0,N
1560000515.3,286047000.4,N
1560000535.1,286047001.6,N
1560000555.9,286047001.8,N
1560000575.7,286047005.7,Y
1560000595.6,286047003.9,P
1560000615.4,286047005.4,N
1560000635.2,286047004.0,N
1560000655.1,286047001.4,N
1560000656.0,286047001.4,N
1560000675.8,286047003.9,N
1560000695.7,286047001.3,N
1560000715.5,286047001.4,N
1560000735.3,286047004.2,N
1560000755.2,286047004.1,N
1560000775.0,286047003.9,N
1560000775.9,286047003.9,N
1560000795.7,286047001.4,N
1560000815.6,286047004.0,N
1560000835.4,286047005.8,Y
1560000855.3,286047001.3,P
1560000875.1,286047003.4,P
1560000895.8,286047003.5,P
1560000915.7,286047003.5,Y
1560000935.5,286046999.8,P
1560000955.4,286046999.7,N
1560000975.2,286047000.2,N
1560000995.0,286047000.9,N
1560000995.9,286047000.9,N
1560001015.8,286046999.9,N
1560001035.6,286047002.5,N
1560001055.5,286047000.8,N
1560001075.3,286047001.1,N
1560001095.1,286046999.2,N
1560001115.9,286046998.9,N
1560001135.7,286046998.7,N
1560001155.5,286046998.2,N
1560001175.4,286046999.0,N
1560001195.2,286046997.2,N
1560001215.0,286046996.4,N
1560001216.0,286046996.4,N
1560001235.8,286046995.8,N
1560001255.6,286046995.5,N
1560001275.5,286046997.9,N
1560001295.3,286046996.3,N
1560001315.1,286046993.6,Y
1560001335.9,286046996.0,P
1560001355.7,286046993.3,P
1560001375.6,286046996.1,N
1560001395.4,286046993.4,Y
1560001415.2,286046998.9,P
1560001435.1,286046998.5,N
1560001436.0,286046998.5,N
1560001455.8,286046998.2,N
1560001475.6,286047000.7,N
1560001495.5,286047000.8,N
1560001515.3,286047000.7,N
1560001535.2,286046998.1,N
1560001555.9,286046998.2,N
1560001575.7,286046998.6,N
1560001595.6,286046999.3,N
1560001615.4,286046998.1,N
1560001635.3,286047000.6,N
1560001655.1,286047001.2,N
1560001656.0,286047001.2,N
1560001675.8,286046999.5,N
1560001695.7,286046999.4,N
1560001715.5,286046999.2,N
1560001735.3,286046998.9,N
1560001755.2,286046999.0,N
1560001775.0,286046996.9,N
1560001775.9,286046996.9,N
1560001795.8,286046998.5,N
1560001815.6,286046998.2,N
1560001835.4,286047000.0,N
1560001855.3,286046998.8,N
1560001875.1,286046997.8,N
1560001895.8,286046995.3,Y
1560001915.7,286046996.0,P
1560001935.5,286046995.5,P
1560001955.4,286046996.6,N
1560001975.2,286046998.4,N
1560001995.0,286046998.3,N
1560001995.9,286046998.3,N
1560002015.8,286047000.6,N
1560002035.6,286046997.2,N
1560002055.5,286046998.0,N
1560002075.3,286046996.8,N
1560002095.1,286046999.2,N
1560002115.9,286046997.0,N
1560002135.7,286046996.7,N
1560002155.5,286046996.8,N
1560002175.4,286046994.9,Y
1560002195.2,286046996.7,P
1560002215.1,286046999.9,N
1560002216.0,286046999.9,N
1560002235.8,286047000.4,N
1560002255.6,286047000.3,N
1560002275.1,286047000.4,N
1560002295.9,286047000.0,N
1560002315.7,286047002.4,N
1560002335.5,286047002.3,N
1560002355.4,286047000.5,N
1560002375.2,286047001.6,N
1560002395.1,286047002.8,N
1560002396.0,286047002.8,N
